User: anonymous   Login
Location: Unspecified
(0.0000°N, 0.0000°E)
Time: 12:47:16
(UTC+00:00)
Language:

Kosmos-1513 - Orbit

View from above orbital plane
View from above orbital plane
View from above satellite
View from above satellite

Ground track
Ground track

The orbit data is extracted from the following two-line orbital elements,

1 14546U 83120A   18169.69654868 +.00000014 +00000-0 -22059-5 0  9990
2 14546 082.9396 234.4935 0039917 113.9238 359.0513 13.74190941731179
Epoch (UTC): 18 June 2018 16:43:01
Eccentricity: 0.0039917
inclination: 82.9396°
perigee height: 955 km
apogee height: 1014 km
right ascension of ascending node: 234.4935°
argument of perigee: 113.9238°
revolutions per day: 13.74190941
mean anomaly at epoch: 359.0513°
orbit number at epoch: 73117

The dashed part of the orbit path shows where the satellite is in the earth's shadow,  

DLR